Location: Lombard
(41.8800°N, 88.0080°W)
Time: 14:06:44
(UTC-06:00)

Transit 4A - Pass Details

Date: 07 December 2023
Orbit: 870 x 973 km, 66.8° (Epoch: 03 March)

Event Time Altitude Azimuth Distance (km) Brightness Sun altitude
Rises 05:53:17 0° 315° (NW) 3,569 - -13.1°
Reaches altitude 10° 05:56:36 10° 298° (WNW) 2,601 - -12.5°
Exits shadow 05:58:33 16° 280° (W) 2,200 9.2 -12.2°
Maximum altitude 06:00:33 18° 256° (WSW) 2,034 9.2 -11.8°
Drops below altitude 10° 06:04:26 10° 215° (SW) 2,545 10.1 -11.2°
Sets 06:07:39 0° 197° (SSW) 3,464 10.9 -10.6°
